CAPE
162 170 331 693 267 147 16 14 23 7 0 0 1 6 53 112 9 32 2 85 85 218 958 779 981 1124 1485 1756 1957 1864 1890 1585 1906 1903 1912 1900 1849 1797 1725 1561 1515 1799 1832 1795 1796 1711 1689 1874 1951
272 343 378 707 133 33 43 38 14 4 0 0 11 68 105 49 26 18 50 147 174 592 1047 1134 1740 1799 1753 1883 1939 1800 1822 1829 1956 1978 2058 1840 1857 1413 1484 1714 1706 1821 1527 1632 1452 1176 1224 1356 1692
227 343 538 363 121 58 74 87 20 18 2 58 144 175 124 18 0 14 82 220 382 1062 1332 1456 1793 1942 1888 1899 1834 1899 1837 1987 1956 2061 1917 1910 1477 2135 1868 1427 1466 1912 1777 1742 1411 1374 1692 1753 1593
99 537 157 157 81 39 107 61 59 84 67 131 104 96 28 2 21 105 213 402 558 1106 1670 1536 1869 2004 1997 1944 1682 2025 1939 1999 2041 2005 1874 1386 1994 1764 1852 1707 1361 1570 1665 1677 1590 1835 2002 2023 1909
33 101 274 137 63 58 81 45 74 134 126 130 95 44 47 592 329 242 419 529 907 1150 1336 1629 2021 2090 2084 1934 1972 1923 2007 1929 1858 1765 1879 1914 1940 1866 1936 1920 1826 1324 1467 1530 1456 1677 1872 1936 1436
42 43 67 41 46 39 62 73 230 236 182 71 0 23 269 845 323 382 508 694 1068 1090 1270 1574 1862 1848 2034 2034 2017 2142 1970 2041 1970 1943 1860 1832 1854 1914 1899 1916 1718 1253 1329 1437 1355 1451 1584 1980 1493
67 206 123 26 54 45 60 153 235 115 96 39 1 111 407 840 547 673 737 867 796 728 1120 1598 1286 1875 1922 2074 2184 2169 2012 1999 1966 1773 1768 1839 1829 1923 1949 1677 1425 1274 1181 1286 1400 1575 1538 1491 1675
58 279 132 58 66 50 89 216 167 90 149 70 22 134 300 741 879 838 801 796 1062 1087 1068 1460 1840 1764 1627 2069 2086 2209 2270 2162 2044 1900 1873 2144 2062 2072 2134 2294 2139 1474 1268 1131 1279 1556 1760 1731 1673
125 211 135 60 43 41 94 157 157 186 76 91 324 94 321 822 798 648 766 1081 1282 1209 1311 1668 1755 1972 1743 2052 2112 2143 2090 2177 1991 2156 2370 2331 1965 1727 1680 2257 2150 2169 2014 1796 1615 1604 2024 2029 1838
87 209 181 148 269 87 78 81 93 47 58 213 354 537 676 740 600 590 710 806 807 783 1269 1585 1628 1415 1921 2180 2394 2389 2456 2518 2503 2167 2194 2051 2043 2269 2214 1823 1368 1977 1650 1427 603 1157 752 732 969
150 115 143 158 189 218 91 66 76 60 41 200 167 535 544 463 531 876 741 391 196 364 1052 1332 1631 1744 1900 2350 2296 2261 2334 2091 2179 1949 1811 1906 1635 1098 1193 1295 914 1044 673 874 696 596 754 1032 1182
288 167 137 126 113 257 172 158 84 78 75 93 200 407 449 502 732 752 222 173 347 630 868 1233 1377 1727 1729 1738 1918 1723 1478 1487 1314 1635 1885 1641 1028 721 951 1106 802 851 1154 1716 1763 1561 1747 1812 1776
326 155 131 84 121 224 231 222 74 74 144 85 223 331 374 505 469 213 225 437 607 602 831 1109 1254 1648 1719 1783 1788 1152 998 872 1129 1346 1536 1308 796 571 525 672 739 1150 1421 1792 2125 2205 2197 1990 1699
138 132 73 104 164 183 259 307 92 155 130 164 244 234 259 321 348 474 570 541 567 511 779 927 1038 1403 1497 1458 1625 1485 1240 821 1223 1311 1645 1273 620 297 746 1164 1271 1661 2025 2213 2248 2213 2249 2003 1314
203 160 130 128 117 130 202 290 164 191 136 236 226 261 213 174 432 507 547 583 663 655 795 887 846 1010 1417 1668 1737 1827 1914 1595 1460 1426 1442 1370 1634 1629 1767 1608 1802 2049 2381 2744 2614 2086 2083 1372 999
148 79 196 33 95 90 204 173 349 209 113 164 200 196 179 175 320 476 489 486 654 483 854 965 611 799 1175 1472 1747 1533 1483 1533 1474 1315 1496 1285 1671 1951 1899 1865 2108 2242 2839 2930 2772 1984 1556 1237 1350
141 63 88 43 32 81 199 149 197 170 98 125 164 177 181 191 217 404 429 461 446 643 815 937 1036 1065 1220 1432 1350 1535 1265 1334 1128 890 1071 1590 2165 1911 2151 2079 1585 2241 2802 3152 2672 2206 1721 1370 1277
87 119 31 22 0 80 89 113 147 155 71 111 173 157 168 149 226 300 413 374 501 572 867 990 1059 1141 1391 1253 1279 1183 1043 877 618 515 1000 1584 2178 2123 2516 1664 1430 2646 2819 3024 2520 2462 2109 1766 1634
38 138 48 3 0 15 44 143 140 131 85 92 155 157 184 171 152 180 286 342 354 510 660 956 1014 1085 1114 1101 1090 1146 1072 1324 833 863 1544 1928 2154 2418 2183 1200 1853 2554 2772 3211 3154 2723 2708 1903 1631
154 176 114 92 27 0 60 85 140 99 71 82 119 147 156 147 113 126 226 243 292 522 655 765 775 1052 1112 1083 1180 1082 1323 1318 1379 1461 1930 2141 1886 2319 2146 1620 2080 2276 2429 3067 3103 3039 2213 1687 1778
218 177 146 132 133 82 53 0 76 88 110 38 0 17 88 94 78 126 195 223 280 397 579 651 680 898 1021 1079 1018 1180 1310 1414 1495 2061 2561 2012 2040 2180 2233 1820 1950 1985 2366 2326 2894 2789 2726 1612 1302
126 164 167 127 113 67 39 0 1 32 76 67 4 0 0 0 39 112 166 239 287 287 384 446 530 656 819 1129 992 1275 1049 1139 1565 2365 2220 2017 2082 2018 2123 2030 1975 2284 2105 2784 2667 2373 2498 2333 1526
190 268 230 140 73 59 41 0 0 2 58 106 61 38 0 0 0 16 105 210 265 218 249 282 414 481 654 933 1070 1504 1145 1046 1373 1395 1661 1862 2058 1954 1825 2158 2070 2229 1884 2456 2511 2451 2692 1868 1787
401 255 186 105 75 64 29 17 0 63 142 93 78 47 18 0 0 3 51 195 229 176 174 203 312 415 514 810 1248 1344 1338 1186 1177 1378 1271 1470 1590 1656 2100 1956 2327 2345 2031 2177 1997 2293 2452 2364 2248
350 298 211 196 150 75 9 19 10 1 20 78 63 80 78 4 0 3 132 178 224 190 208 228 260 334 373 621 1060 1229 1345 1404 1491 1498 1151 1361 1260 1343 1896 2087 2085 2542 2111 2054 2150 2374 2278 2178 1993
377 59 115 107 133 79 128 91 61 23 3 2 61 60 116 64 0 10 122 187 242 239 285 249 258 326 360 574 1006 1227 1338 1110 1139 1342 1149 1100 1135 1215 1514 1562 1718 1687 1907 2001 2240 1933 1793 1712 1795
415 168 85 94 35 28 41 120 62 29 28 5 1 18 49 85 39 24 93 184 256 277 331 312 316 377 369 529 940 1191 1201 1213 1030 1220 1141 878 1013 948 1002 1169 1384 1693 1720 1857 1906 1515 1928 1945 1970
560 330 272 150 73 5 0 55 134 155 152 51 64 43 69 77 35 33 46 149 192 248 310 327 351 355 330 437 771 924 1000 1154 1153 1149 1051 959 870 779 835 887 1079 1381 1657 1798 1986 2131 1911 2060 1794
518 496 130 59 47 41 6 3 192 217 180 99 52 109 157 102 135 107 44 132 230 199 238 265 372 364 316 378 538 818 875 965 982 984 1054 1156 900 610 514 780 855 1223 1374 1540 1827 2088 1915 1986 1827
338 308 315 197 8 33 0 1 228 239 196 189 112 95 86 136 171 113 80 138 234 257 261 246 363 404 364 412 507 549 699 804 784 940 942 1072 1038 808 760 380 447 542 997 1273 1564 1611 1311 1705 1649
CIN
-180 -97 -126 -118 -58 -30 -24 -27 -40 -74 0 0 -12 -44 -40 -43 -15 -44 -39 -31 -26 -21 -6 -15 -13 -8 -5 -3 0 0 0 0 0 0 0 0 0 0 0 0 0 0 0 0 0 0 -2 0 0
-173 -113 -166 -129 -35 -10 -9 -32 -12 -22 0 0 -77 -29 -37 -67 -140 -150 -64 -35 -29 -8 0 0 -4 -3 -3 -1 0 0 0 0 0 0 0 0 0 0 0 0 0 0 -1 -2 -2 -3 -3 -4 -2
-193 -164 -127 -98 -61 -11 -8 -33 -20 -48 -16 -54 -55 -41 -62 -92 0 -61 -78 -47 -26 -3 0 0 -5 -2 0 -1 0 0 0 0 0 0 0 0 0 0 0 0 0 0 0 0 -2 -3 -2 0 -1
-96 -125 -221 -55 -20 -44 -30 -48 -55 -58 -50 -49 -53 -73 -123 -20 -117 -92 -76 -45 -21 -2 0 0 0 0 0 0 0 0 0 0 0 0 0 0 0 0 0 0 0 0 0 0 -1 -1 0 0 0
-162 -201 -71 -49 -40 -52 -52 -39 -33 -41 -48 -38 -56 -86 -109 -17 -78 -83 -67 -49 -23 -4 0 0 0 0 0 0 0 0 0 0 0 -1 0 0 0 0 0 0 0 0 0 -2 -7 -4 -2 0 -2
-164 -192 -52 -29 -47 -64 -49 -44 -39 -38 -57 -79 0 -63 -41 -5 -80 -64 -59 -42 -12 -6 0 0 0 0 0 0 0 0 0 0 0 0 0 0 0 0 0 0 0 -2 -9 -13 -22 -16 -12 -2 -11
-125 -74 -62 -50 -56 -47 -59 -45 -23 -78 -56 -68 -4 -71 -40 -10 -46 -49 -48 -32 -30 -31 -4 0 0 0 0 0 0 0 0 0 0 0 0 0 0 0 0 0 0 -8 -19 -24 -22 -17 -20 -20 -15
-177 -77 -58 -66 -40 -47 -46 -36 -38 -84 -78 -77 -72 -72 -60 -27 -21 -28 -31 -33 -11 -5 -3 0 0 0 0 0 0 0 0 0 0 0 0 0 0 0 -1 -1 0 -7 -23 -28 -28 -29 -25 -22 -19
-145 -42 -37 -62 -44 -64 -54 -39 -51 -80 -75 -39 -38 -67 -81 -46 -26 -33 -34 -4 0 0 0 0 0 -1 -1 0 0 0 0 0 0 0 -4 -3 0 0 0 0 0 0 -4 -13 -23 -28 -19 -26 -30
-138 -52 -29 -112 -79 -53 -53 -38 -77 -88 -59 -43 -59 -57 -62 -51 -40 -40 -36 -21 -17 -9 0 0 0 0 0 0 0 0 0 0 0 0 -1 0 0 0 -1 -13 -45 -25 -45 -55 -80 -73 -115 -111 -33
-109 -60 -89 -66 -87 -58 -56 -43 -61 -72 -45 -57 -70 -52 -61 -60 -35 -11 -23 -52 -88 -61 0 0 0 -2 0 0 0 0 0 0 0 -4 -12 -10 -15 -37 -31 -24 -34 -37 -104 -39 -65 -89 -71 -48 -36
-28 -45 -56 -78 -95 -60 -45 -59 -36 -31 -29 -51 -58 -79 -74 -53 -25 -24 -74 -96 -66 -33 -7 0 0 0 0 0 0 0 -2 -5 -9 -14 -19 -27 -37 -66 -69 -50 -62 -70 -56 -45 -40 -26 -43 -46 -44
-16 -40 -53 -80 -74 -66 -49 -35 -55 -36 -64 -55 -62 -59 -52 -36 -36 -54 -60 -39 -34 -31 -12 -1 -2 0 -2 -4 -5 -18 -28 -24 -21 -27 -38 -43 -50 -79 -79 -95 -75 -81 -75 -39 -33 -30 -27 -34 -28
-74 -67 -73 -71 -73 -54 -40 -12 -37 -42 -77 -45 -59 -47 -53 -47 -50 -43 -32 -26 -30 -38 -18 -13 -12 -6 -16 -16 -18 -15 -19 -44 -33 -37 -37 -69 -81 -119 -74 -70 -61 -70 -66 -55 -44 -47 -27 -23 -19
-39 -71 -36 -20 -51 -51 -53 -6 -37 -52 -61 -45 -41 -44 -51 -51 -37 -34 -24 -18 -24 -23 -24 -21 -26 -28 -25 -18 -13 -15 -22 -28 -23 -26 -44 -54 -54 -51 -65 -57 -42 -48 -63 -54 -41 -43 -47 -29 -24
-37 -46 -8 -41 -13 -36 -14 -18 -22 -49 -56 -47 -32 -46 -55 -50 -30 -26 -18 -13 -19 -20 -24 -20 -27 -27 -20 -20 -20 -19 -38 -23 -24 -38 -56 -56 -47 -51 -59 -44 -36 -57 -40 -26 -29 -31 -32 -36 -25
-29 -28 -6 -16 -6 0 -3 -11 -48 -53 -36 -45 -35 -34 -40 -40 -34 -30 -20 -12 -15 -18 -18 -19 -19 -17 -24 -29 -28 -27 -34 -22 -31 -52 -66 -53 -30 -47 -41 -36 -68 -83 -30 -26 -29 -35 -32 -28 -36
-15 -26 -48 -23 0 0 -1 -31 -56 -56 -68 -53 -33 -25 -38 -34 -39 -36 -22 -20 -14 -17 -19 -18 -18 -22 -24 -25 -35 -30 -25 -32 -46 -51 -40 -42 -23 -29 -26 -45 -74 -47 -17 -17 -30 -46 -59 -41 -35
-35 -49 -8 -18 0 0 -4 -3 -33 -38 -29 -16 -30 -28 -31 -34 -24 -28 -20 -23 -31 -23 -18 -13 -21 -29 -29 -27 -16 -14 -9 -18 -26 -33 -28 -31 -27 -19 -39 -57 -46 -41 -19 -30 -33 -30 -34 -39 -84
-29 -38 -29 -9 -31 0 0 0 -1 -16 -22 -25 -33 -26 -27 -26 -26 -42 -34 -29 -31 -25 -24 -21 -27 -34 -40 -33 -25 -16 -17 -14 -13 -15 -15 -17 -21 -23 -25 -50 -25 -38 -15 -21 -30 -33 -26 -54 -90
-14 -7 -40 -14 0 0 -1 0 -1 -14 -27 -16 0 -37 -23 -20 -27 -40 -40 -44 -36 -40 -31 -26 -31 -34 -39 -37 -41 -35 -30 -25 -14 -16 -8 -9 -16 -16 -25 -36 -29 -37 -30 -11 -24 -28 -34 -23 -83
-6 -50 -44 -28 -1 -3 -4 0 -1 -3 -5 -50 -74 0 0 0 -28 -38 -44 -52 -49 -58 -44 -31 -37 -37 -36 -32 -28 -23 -8 -3 -5 -9 -7 -13 -15 -13 -13 -22 -32 -27 -20 -14 -17 -21 -30 -38 -26
-23 -48 -41 -38 -16 -5 0 0 0 0 -8 -7 -50 -114 0 0 0 -46 -49 -60 -49 -57 -67 -53 -38 -38 -27 -32 -30 -17 -11 -6 -9 -17 -21 -24 -18 -14 -13 -14 -19 -21 -19 -18 -17 -18 -22 -31 -24
-56 -36 -44 -46 -25 -6 -12 -3 0 -70 -75 -69 -47 -82 -61 0 0 -20 -58 -58 -54 -62 -65 -52 -49 -44 -36 -32 -24 -23 -20 -23 -18 -21 -12 -9 -9 -8 -13 -15 -13 -17 -12 -14 -13 -18 -17 -21 -27
-44 -5 -2 -1 -1 -2 -7 -18 -42 -12 -107 -53 -103 -111 -102 -14 0 -25 -66 -62 -74 -86 -76 -64 -62 -46 -38 -25 -19 -25 -21 -24 -20 -20 -14 -15 -12 -16 -13 -20 -22 -11 -16 -14 -13 -13 -12 -14 -15
-67 -60 -3 0 -1 -8 -44 -25 -23 -105 -1 -9 -26 -99 -99 -99 0 -36 -82 -79 -92 -97 -84 -84 -81 -58 -51 -29 -20 -27 -27 -15 -15 -16 -16 -18 -17 -18 -28 -21 -13 -7 -11 -12 -12 -5 -5 -13 -10
-72 -54 -52 -6 -34 -17 -26 -36 -74 -132 -66 -24 -3 -49 -115 -135 -114 -105 -87 -83 -94 -91 -107 -105 -94 -70 -66 -35 -29 -30 -30 -32 -20 -31 -42 -32 -53 -37 -47 -35 -20 -13 -11 -13 -10 -2 -4 -7 -5
-45 -68 -10 -23 -3 -1 0 -16 -27 -103 -133 -145 -124 -98 -118 -114 -174 -200 -190 -105 -108 -95 -105 -109 -102 -91 -74 -38 -27 -25 -28 -33 -30 -31 -38 -45 -48 -66 -56 -43 -28 -18 -8 -6 -6 -2 -3 -4 -1
-42 -24 -40 -11 -27 -5 -3 -12 -122 -100 -123 -150 -45 -68 -65 -146 -140 -157 -256 -147 -121 -121 -92 -116 -117 -106 -102 -69 -43 -24 -31 -39 -37 -32 -30 -29 -43 -77 -81 -55 -37 -19 -12 -8 -9 -7 -1 -2 -2
-78 -23 -26 0 0 -29 0 -2 -171 -167 -182 -186 -185 -176 -97 -129 -129 -184 -223 -220 -149 -146 -128 -126 -130 -113 -106 -90 -83 -68 -42 -35 -31 -37 -38 -35 -39 -51 -51 -73 -67 -54 -22 -8 -10 -3 0 -2 0
Wind_Speed
17 14 12 15 9 7 nan nan nan nan nan nan nan nan nan 16 nan nan nan nan nan 4 7 7 8 8 9 10 10 8 8 3 3 3 5 5 10 11 12 14 10 12 14 11 10 11 11 12 11
14 13 12 11 5 nan nan nan nan nan nan nan nan nan 13 nan nan nan nan 9 5 3 3 7 8 6 7 4 5 5 2 3 6 9 10 10 13 15 16 15 15 15 13 13 11 11 10 9 9
14 7 5 8 3 nan nan nan nan nan nan nan 6 2 8 nan nan nan nan 8 7 4 4 3 5 4 3 3 2 2 3 5 7 9 11 12 14 16 17 17 15 15 15 14 15 17 15 11 9
nan 7 8 7 nan nan 10 nan nan nan nan 4 6 nan nan nan nan 8 11 11 8 4 5 4 6 4 4 3 2 1 2 6 8 9 10 11 13 13 15 14 13 15 14 14 16 17 18 16 12
nan 11 7 4 nan nan nan nan nan 6 4 4 nan nan nan 7 2 8 11 11 10 7 3 5 5 6 7 7 5 5 4 5 7 7 8 10 13 14 16 15 14 14 13 13 15 17 17 12 13
nan nan nan nan nan nan nan nan 4 6 8 nan nan nan 3 5 7 8 8 8 7 5 3 5 8 10 9 9 8 6 4 4 5 5 7 10 11 12 14 13 14 14 12 11 13 14 14 12 11
nan 9 6 nan nan nan nan 5 4 8 nan nan nan 5 5 10 8 8 6 7 7 6 5 7 10 11 11 10 7 4 2 2 3 5 6 7 10 14 15 14 13 12 12 12 12 12 13 11 11
nan 3 2 nan nan nan nan 6 1 nan 10 nan nan 7 6 12 9 7 4 5 5 6 7 10 11 10 11 8 4 3 1 2 6 7 8 12 10 13 15 11 14 13 13 13 13 11 12 11 11
5 6 6 nan nan nan nan 4 7 10 nan nan 8 nan 4 9 9 6 5 7 9 8 11 11 11 12 8 7 6 5 2 2 5 10 14 14 12 11 12 14 14 15 16 15 13 12 13 13 14
nan 4 7 5 6 nan nan nan nan nan nan 8 1 3 5 8 11 9 10 10 12 13 15 12 11 10 8 7 7 6 4 3 6 9 10 12 12 12 13 14 15 17 20 18 17 18 18 17 17
5 7 8 9 9 6 nan nan nan nan nan 12 14 10 8 9 11 11 11 12 13 13 14 13 12 13 14 13 12 11 12 12 11 7 9 12 13 12 14 16 18 21 20 16 16 16 15 17 18
7 8 6 10 13 10 9 3 nan nan nan nan 10 11 9 11 11 13 12 14 13 14 16 17 18 18 15 13 13 14 18 17 16 14 12 13 15 13 17 20 21 21 22 15 17 16 16 17 15
8 8 13 nan 18 18 11 3 nan nan 2 nan 9 10 11 12 12 13 13 12 14 15 16 19 18 18 15 13 12 13 15 15 13 16 17 16 15 18 19 22 24 23 20 18 18 17 16 15 13
13 15 nan 12 18 21 19 8 nan 3 6 9 11 12 13 12 11 10 12 12 14 16 15 17 20 20 17 17 17 18 17 16 16 17 18 16 17 20 24 24 22 21 20 19 18 17 16 15 13
16 17 19 21 23 24 22 9 6 4 9 10 12 12 11 11 10 13 13 12 15 16 15 15 15 17 17 18 19 20 18 19 18 16 18 21 23 23 26 22 21 19 18 17 14 14 12 10 10
21 nan 22 nan nan nan 23 10 11 5 9 10 9 11 13 12 13 11 11 10 13 14 14 13 14 14 16 17 19 20 20 18 17 17 15 18 25 27 25 22 19 18 17 14 12 9 8 8 5
21 nan nan nan nan nan 19 18 19 2 nan 7 6 10 12 10 11 12 10 10 11 15 14 15 15 16 16 14 17 19 18 17 17 18 19 19 18 18 20 19 20 20 16 13 10 6 5 2 0
nan 24 nan nan nan nan nan 26 18 5 nan 4 3 4 9 11 13 11 10 10 10 12 14 17 17 20 19 16 15 18 17 16 18 17 17 18 17 16 15 15 17 18 16 13 10 8 8 5 2
nan 22 nan nan nan nan nan 27 12 7 nan nan 0 1 8 13 11 11 10 7 9 11 12 14 16 19 18 16 15 15 15 13 14 16 17 17 15 14 16 15 14 15 14 14 12 8 8 6 3
23 18 15 nan nan nan nan nan 21 nan nan nan 2 2 8 11 9 10 7 6 8 9 11 10 14 15 16 14 14 16 14 13 11 12 15 15 13 14 13 14 12 12 11 11 13 12 8 9 7
21 19 18 14 11 nan nan nan nan nan 18 nan nan nan nan nan nan 10 7 7 7 9 9 9 9 10 12 12 11 13 13 12 10 11 10 12 12 11 13 12 11 10 9 8 10 10 7 6 7
17 17 21 18 9 nan nan nan nan nan nan nan nan nan nan nan nan 8 10 9 8 8 6 8 7 6 7 9 9 8 11 11 10 8 9 8 10 9 9 10 8 10 9 6 6 7 7 3 5
20 24 19 21 nan nan nan nan nan nan nan 16 nan nan nan nan nan nan 8 12 10 6 5 5 5 5 6 7 8 6 8 9 9 6 5 5 5 8 8 7 5 5 6 5 6 7 7 7 6
26 20 21 15 nan nan nan nan nan nan 13 nan nan nan nan nan nan nan nan 6 7 6 6 4 4 3 4 6 6 7 7 4 3 2 4 6 5 5 6 6 4 4 2 2 3 4 5 7 7
19 13 12 10 8 nan nan nan nan nan nan nan nan nan nan nan nan nan 4 4 3 2 5 4 4 5 3 4 5 4 3 2 1 2 2 1 3 4 3 4 4 4 2 1 2 2 2 3 4
11 nan 9 13 14 nan 9 nan nan nan nan nan nan nan 13 nan nan nan 4 3 2 3 1 4 1 3 3 3 5 4 2 3 2 1 3 2 4 5 4 4 3 3 2 2 3 2 2 4 2
15 6 nan nan nan nan nan 13 nan nan nan nan nan nan nan nan nan nan nan 9 7 6 6 5 4 3 2 2 2 2 3 2 2 2 2 3 4 5 6 4 4 3 3 1 4 4 4 4 5
19 19 13 10 nan nan nan nan 13 23 26 nan nan nan nan nan nan nan nan 12 13 10 11 10 7 4 4 2 3 3 1 1 1 2 2 0 2 4 6 3 1 1 2 1 1 4 4 5 6
21 17 18 nan nan nan nan nan 14 19 16 nan nan 14 13 11 14 22 nan 16 13 16 15 14 10 8 6 7 5 4 4 2 2 2 2 2 2 3 5 5 4 4 5 3 2 2 3 4 4
22 21 14 11 nan nan nan nan 10 8 12 14 14 nan nan 8 9 18 nan 27 20 20 18 14 15 11 8 9 9 7 5 5 5 5 4 5 5 7 8 8 7 4 7 5 4 4 5 3 3
Wind_Direction
43 58 62 66 69 60 nan nan nan nan nan nan nan nan nan 119 nan nan nan nan nan 81 111 121 100 78 55 74 82 68 69 74 133 225 245 245 232 228 231 216 206 212 201 199 197 198 185 184 188
23 67 63 67 75 nan nan nan nan nan nan nan nan nan 107 nan nan nan nan 53 27 49 45 39 47 52 68 60 49 68 69 174 194 210 215 220 220 221 222 223 205 200 201 190 185 186 179 178 180
7 94 90 84 86 nan nan nan nan nan nan nan 35 106 92 nan nan nan nan 16 5 12 54 41 85 74 80 94 13 174 163 190 197 208 213 217 215 216 217 212 201 198 200 190 181 184 180 179 165
nan 82 110 102 nan nan 88 nan nan nan nan 103 346 nan nan nan nan 76 24 14 15 9 65 65 96 115 127 90 40 19 176 185 199 194 207 213 214 209 211 207 203 197 196 186 183 183 184 195 181
nan 87 129 133 nan nan nan nan nan 42 93 33 nan nan nan 98 37 4 28 30 6 10 43 64 88 99 96 107 105 112 96 136 163 181 197 204 207 203 198 193 194 192 191 184 184 189 181 181 179
nan nan nan nan nan nan nan nan 86 88 76 nan nan nan 131 100 4 26 35 35 26 18 59 101 105 106 110 102 85 64 87 120 127 146 169 177 184 193 199 196 192 189 183 182 181 187 181 180 176
nan 63 143 nan nan nan nan 112 88 75 nan nan nan 345 112 74 42 34 35 33 45 49 71 106 108 100 92 70 68 60 25 74 182 184 178 183 196 194 191 185 180 175 171 171 170 171 171 167 161
nan 349 301 nan nan nan nan 158 25 nan 103 nan nan 36 58 54 42 21 52 65 84 102 116 121 125 116 106 92 79 78 125 209 201 184 177 198 199 197 187 162 173 174 166 155 152 154 154 154 151
341 303 349 nan nan nan nan 263 131 97 nan nan 111 nan 17 11 26 23 56 92 100 99 121 123 124 127 119 97 76 39 6 269 208 188 179 175 156 162 163 166 172 166 163 156 146 144 149 143 145
nan 356 161 162 216 nan nan nan nan nan nan 117 25 296 342 29 42 45 60 87 94 91 107 115 111 99 91 86 75 78 61 91 148 166 156 136 141 145 148 154 162 151 149 153 151 146 144 132 139
282 320 346 190 204 199 nan nan nan nan nan 80 2 355 25 29 59 70 84 87 85 91 98 97 101 102 93 94 88 87 82 91 104 132 130 121 135 132 128 130 138 140 150 144 145 140 137 143 137
258 278 295 179 194 195 215 191 nan nan nan nan 19 8 30 47 59 76 78 80 84 87 87 90 87 92 99 99 95 83 86 83 81 90 116 118 130 128 133 135 142 142 144 140 133 134 139 141 142
244 271 272 nan 205 204 191 169 nan nan 77 nan 13 15 27 49 64 79 83 84 87 84 86 88 85 85 90 86 95 95 93 90 90 92 103 118 125 123 132 141 140 142 141 138 140 145 144 144 159
235 241 nan 199 197 200 180 181 nan 70 348 4 21 39 46 49 54 78 89 86 85 84 86 86 86 77 81 86 88 93 105 98 100 107 114 119 118 131 133 130 133 136 136 139 136 139 147 156 165
254 234 238 242 240 192 163 164 143 3 358 9 38 55 72 71 59 66 76 87 85 90 90 90 85 76 80 85 95 98 104 102 102 112 113 107 100 136 137 136 139 138 139 131 135 144 143 168 185
231 nan 248 nan nan nan 155 136 204 330 359 2 35 61 73 67 61 75 77 86 87 92 91 86 83 89 92 96 99 101 100 94 99 102 108 117 116 125 125 128 138 135 133 134 144 152 173 185 187
228 nan nan nan nan nan 163 180 195 310 nan 351 9 68 88 96 92 82 80 85 83 91 90 88 86 92 108 112 113 104 99 93 91 94 103 112 122 130 137 141 143 139 134 144 146 158 159 183 217
nan 245 nan nan nan nan nan 175 191 283 nan 342 351 89 97 95 88 90 95 91 90 95 100 102 106 110 117 122 120 110 98 95 93 91 90 102 119 125 128 135 141 138 141 153 163 170 182 166 152
nan 247 nan nan nan nan nan 180 212 225 nan nan 206 192 96 86 93 104 107 92 95 97 98 105 113 119 123 119 114 107 93 87 89 91 90 100 101 117 137 133 133 140 153 170 167 180 188 182 190
255 255 261 nan nan nan nan nan 206 nan nan nan 208 269 87 89 99 93 88 92 89 88 103 113 116 118 124 127 123 125 113 100 99 92 90 93 98 105 111 116 126 146 158 189 190 191 191 186 186
252 236 225 226 262 nan nan nan nan nan 177 nan nan nan nan nan nan 96 81 76 95 86 81 97 111 119 128 131 145 145 131 121 107 100 96 101 98 101 111 112 113 119 137 181 195 194 207 234 224
245 262 262 259 243 nan nan nan nan nan nan nan nan nan nan nan nan 77 95 81 74 80 78 78 93 108 125 134 138 129 116 116 111 102 100 95 93 97 95 103 114 130 137 153 163 181 189 215 262
231 245 269 245 nan nan nan nan nan nan nan 165 nan nan nan nan nan nan 73 82 83 77 64 71 91 106 128 135 134 132 123 133 143 132 101 90 87 93 89 79 78 105 127 149 167 187 196 224 227
255 255 252 270 nan nan nan nan nan nan 19 nan nan nan nan nan nan nan nan 97 98 101 97 84 79 96 115 117 128 129 123 154 202 202 143 140 135 116 91 87 72 62 97 130 174 183 184 214 236
242 251 246 260 253 nan nan nan nan nan nan nan nan nan nan nan nan nan 134 95 71 60 107 111 84 85 99 103 120 118 106 142 115 281 93 221 132 123 116 119 117 131 127 198 226 248 203 206 200
270 nan 222 236 254 nan 261 nan nan nan nan nan nan nan 205 nan nan nan 151 147 137 290 271 148 160 135 114 84 89 110 88 108 59 166 165 217 150 129 141 107 107 103 143 235 246 261 259 267 235
241 224 nan nan nan nan nan 172 nan nan nan nan nan nan nan nan nan nan nan 187 207 224 247 227 203 210 208 96 142 118 133 96 79 100 216 209 198 151 126 122 108 78 90 150 244 222 230 258 291
210 232 219 220 nan nan nan nan 147 161 170 nan nan nan nan nan nan nan nan 215 208 218 235 237 226 236 243 206 216 223 203 131 194 272 327 131 94 147 139 45 18 172 74 58 221 225 240 245 259
230 225 216 nan nan nan nan nan 160 127 129 nan nan 148 129 177 202 219 nan 212 218 224 232 247 235 230 246 252 232 222 238 264 239 247 274 306 281 280 273 295 313 231 200 218 176 199 245 261 252
218 222 234 188 nan nan nan nan 201 194 150 150 161 nan nan 21 309 239 nan 222 245 237 233 240 238 222 225 242 256 251 238 228 240 241 213 234 265 283 292 302 325 292 229 205 219 213 218 248 246